﻿_id,日時,平均風速(m/s),平均風向,最大瞬間風速(m/s),最大風速時風向,気温(℃),湿度(%),10分間移動積算雨量(mm),1時間移動積算雨量(mm),日雨量(mm),累計雨量(mm)
1,2020-11-02T00:00:00,0.2,静穏,0.7,北東,14.3,86.3,0,0,0,0
2,2020-11-02T00:01:00,0.2,静穏,0.7,北東,14.3,86.5,0,0,0,0
3,2020-11-02T00:02:00,0.2,静穏,0.7,北東,14.2,86.7,0,0,0,0
4,2020-11-02T00:03:00,0.3,東,0.7,北東,14.2,86.9,0,0,0,0
5,2020-11-02T00:04:00,0.2,静穏,0.7,北東,14.2,87.2,0,0,0,0
6,2020-11-02T00:05:00,0.2,静穏,0.7,南東,14.2,87.3,0,0,0,0
7,2020-11-02T00:06:00,0.3,東南東,0.7,南東,14.2,87.3,0,0,0,0
8,2020-11-02T00:07:00,0.3,東南東,0.7,南東,14.2,87.5,0,0,0,0
9,2020-11-02T00:08:00,0.3,東,0.7,南東,14.2,87.6,0,0,0,0
10,2020-11-02T00:09:00,0.3,東,0.7,南東,14.3,87.3,0,0,0,0
11,2020-11-02T00:10:00,0.3,東,0.7,南東,14.2,87.2,0,0,0,0
12,2020-11-02T00:11:00,0.4,東,0.7,南東,14.3,87.1,0,0,0,0
13,2020-11-02T00:12:00,0.4,東,0.7,南東,14.2,87,0,0,0,0
14,2020-11-02T00:13:00,0.4,東,0.7,南東,14.2,87.1,0,0,0,0
15,2020-11-02T00:14:00,0.4,東,0.7,南東,14.2,87.2,0,0,0,0
16,2020-11-02T00:15:00,0.3,東,0.7,東,14.2,87.6,0,0,0,0
17,2020-11-02T00:16:00,0.3,東北東,0.7,東,14.2,87.8,0,0,0,0
18,2020-11-02T00:17:00,0.3,東,0.7,東,14.2,87.9,0,0,0,0
19,2020-11-02T00:18:00,0.3,東,0.7,東,14.2,87.9,0,0,0,0
20,2020-11-02T00:19:00,0.3,東,0.7,東,14.2,88,0,0,0,0
21,2020-11-02T00:20:00,0.3,東,0.7,東,14.2,88.2,0,0,0,0
22,2020-11-02T00:21:00,0.3,東南東,0.9,南,14.2,87.9,0,0,0,0
23,2020-11-02T00:22:00,0.3,東南東,0.9,南,14.1,87.7,0,0,0,0
24,2020-11-02T00:23:00,0.3,南東,0.9,南,14.1,87.9,0,0,0,0
25,2020-11-02T00:24:00,0.3,南東,0.9,南,14.1,87.9,0,0,0,0
26,2020-11-02T00:25:00,0.4,南東,0.9,南,14.2,87.9,0,0,0,0
27,2020-11-02T00:26:00,0.4,南東,0.9,南,14.2,87.9,0,0,0,0
28,2020-11-02T00:27:00,0.5,南東,0.9,南,14.2,87.8,0,0,0,0
29,2020-11-02T00:28:00,0.5,南南東,0.9,南,14.2,87.8,0,0,0,0
30,2020-11-02T00:29:00,0.4,南南東,0.9,南,14.2,87.7,0,0,0,0
31,2020-11-02T00:30:00,0.4,南南東,0.9,南,14.2,87.7,0,0,0,0
32,2020-11-02T00:31:00,0.4,南東,0.8,南東,14.2,87.7,0,0,0,0
33,2020-11-02T00:32:00,0.4,南東,0.9,南東,14.2,87.7,0,0,0,0
34,2020-11-02T00:33:00,0.4,南東,0.9,南東,14.2,87.4,0,0,0,0
35,2020-11-02T00:34:00,0.5,南東,0.9,南東,14.3,87.4,0,0,0,0
36,2020-11-02T00:35:00,0.5,南東,0.9,南東,14.3,87.4,0,0,0,0
37,2020-11-02T00:36:00,0.5,南東,0.9,南東,14.3,87.2,0,0,0,0
38,2020-11-02T00:37:00,0.5,南東,0.9,南東,14.2,87.2,0,0,0,0
39,2020-11-02T00:38:00,0.5,南東,0.9,南東,14.2,87.2,0,0,0,0
40,2020-11-02T00:39:00,0.5,南東,0.9,南東,14.2,87.3,0,0,0,0
41,2020-11-02T00:40:00,0.5,南東,0.9,南東,14.2,87.3,0,0,0,0
42,2020-11-02T00:41:00,0.5,南東,0.9,南東,14.2,87.5,0,0,0,0
43,2020-11-02T00:42:00,0.5,東南東,0.9,南東,14.2,87.6,0,0,0,0
44,2020-11-02T00:43:00,0.5,東南東,0.8,南東,14.2,87.7,0,0,0,0
45,2020-11-02T00:44:00,0.5,東南東,0.8,南東,14.2,87.7,0,0,0,0
46,2020-11-02T00:45:00,0.5,東南東,0.8,南東,14.2,87.7,0,0,0,0
47,2020-11-02T00:46:00,0.5,東,1.1,北東,14.2,87.8,0,0,0,0
48,2020-11-02T00:47:00,0.5,東,1.4,北北東,14.2,87.9,0,0,0,0
49,2020-11-02T00:48:00,0.6,東北東,1.4,北北東,14.1,88.1,0,0,0,0
50,2020-11-02T00:49:00,0.7,東北東,1.7,北東,14.1,88.4,0,0,0,0
51,2020-11-02T00:50:00,0.8,東北東,1.7,北東,14.1,88.7,0,0,0,0
52,2020-11-02T00:51:00,0.8,東北東,1.7,北東,14.2,88.8,0,0,0,0
53,2020-11-02T00:52:00,0.8,東北東,1.7,北東,14.2,88.5,0,0,0,0
54,2020-11-02T00:53:00,0.8,北東,1.7,北東,14.3,87.8,0,0,0,0
55,2020-11-02T00:54:00,0.7,北東,1.7,北東,14.3,88.1,0,0,0,0
56,2020-11-02T00:55:00,0.7,北東,1.7,北東,14.2,88.2,0,0,0,0
57,2020-11-02T00:56:00,0.7,北北東,1.7,北東,14.3,88,0,0,0,0
58,2020-11-02T00:57:00,0.6,北北東,1.7,北東,14.3,87.8,0,0,0,0
59,2020-11-02T00:58:00,0.5,北東,1.7,北東,14.3,87.7,0,0,0,0
60,2020-11-02T00:59:00,0.4,北東,1.4,北,14.4,87.5,0,0,0,0
61,2020-11-02T01:00:00,0.3,西南西,1,北東,14.4,87.2,0,0,0,0
62,2020-11-02T01:01:00,0.2,静穏,0.7,南西,14.4,87,0,0,0,0
63,2020-11-02T01:02:00,0.2,静穏,0.8,南南西,14.4,87,0,0,0,0
64,2020-11-02T01:03:00,0.2,静穏,0.8,南南西,14.4,87.1,0,0,0,0
65,2020-11-02T01:04:00,0.2,静穏,0.8,南南西,14.4,87,0,0,0,0
66,2020-11-02T01:05:00,0.2,静穏,0.8,南南西,14.4,87,0,0,0,0
67,2020-11-02T01:06:00,0.2,静穏,0.8,南南西,14.4,87.2,0,0,0,0
68,2020-11-02T01:07:00,0.2,静穏,0.8,南南西,14.4,87.4,0,0,0,0
69,2020-11-02T01:08:00,0.2,静穏,0.8,南南西,14.4,87.5,0,0,0,0
70,2020-11-02T01:09:00,0.2,静穏,0.8,南南西,14.3,87.8,0,0,0,0
71,2020-11-02T01:10:00,0.3,西南西,0.8,南南西,14.3,88,0,0,0,0
72,2020-11-02T01:11:00,0.3,西南西,1,西,14.3,87.9,0,0,0,0
73,2020-11-02T01:12:00,0.4,西南西,1.3,西北西,14.3,88,0,0,0,0
74,2020-11-02T01:13:00,0.4,西南西,1.3,西北西,14.3,88.4,0,0,0,0
75,2020-11-02T01:14:00,0.5,西南西,1.3,西北西,14.2,88.7,0,0,0,0
76,2020-11-02T01:15:00,0.5,西南西,1.3,西北西,14.2,89.2,0,0,0,0
77,2020-11-02T01:16:00,0.5,西南西,1.3,西北西,14.2,89.3,0,0,0,0
78,2020-11-02T01:17:00,0.5,南西,1.3,西北西,14.2,88.8,0,0,0,0
79,2020-11-02T01:18:00,0.5,南西,1.3,西北西,14.2,88.6,0,0,0,0
80,2020-11-02T01:19:00,0.5,南西,1.3,西北西,14.1,89,0,0,0,0
81,2020-11-02T01:20:00,0.5,南南西,1.3,西北西,14.1,89.1,0,0,0,0
82,2020-11-02T01:21:00,0.4,南南西,1.3,西北西,14.1,89.1,0,0,0,0
83,2020-11-02T01:22:00,0.3,南,1.3,西,14.1,89.4,0,0,0,0
84,2020-11-02T01:23:00,0.3,南南東,0.9,西,14.1,89.9,0,0,0,0
85,2020-11-02T01:24:00,0.2,静穏,0.7,東,14.1,90,0,0,0,0
86,2020-11-02T01:25:00,0.2,静穏,0.7,東,14,90.3,0,0,0,0
87,2020-11-02T01:26:00,0.2,静穏,0.7,東,14,90.6,0,0,0,0
88,2020-11-02T01:27:00,0.2,静穏,1.2,北東,13.9,90.8,0,0,0,0
89,2020-11-02T01:28:00,0.2,静穏,1.2,北東,13.9,91.1,0,0,0,0
90,2020-11-02T01:29:00,0.3,東北東,1.7,北東,13.8,91.4,0,0,0,0
91,2020-11-02T01:30:00,0.4,北東,1.7,北東,13.8,91.9,0,0,0,0
92,2020-11-02T01:31:00,0.5,北東,1.7,北東,13.7,92.4,0,0,0,0
93,2020-11-02T01:32:00,0.5,北東,1.7,北東,13.7,92.9,0,0,0,0
94,2020-11-02T01:33:00,0.6,北北東,1.7,北東,13.7,93.2,0,0,0,0
95,2020-11-02T01:34:00,0.7,北北東,1.7,北東,13.7,93.5,0,0,0,0
96,2020-11-02T01:35:00,0.8,北東,1.7,北東,13.8,93.8,0,0,0,0
97,2020-11-02T01:36:00,0.9,北東,1.7,北東,13.7,93.9,0,0,0,0
98,2020-11-02T01:37:00,0.9,北東,1.7,北東,13.7,93.9,0,0,0,0
99,2020-11-02T01:38:00,1,東北東,1.9,東北東,13.7,94,0,0,0,0
100,2020-11-02T01:39:00,1,東北東,2,東北東,13.7,94.2,0,0,0,0
101,2020-11-02T01:40:00,1,東北東,2,東北東,13.7,94.4,0,0,0,0
102,2020-11-02T01:41:00,1.1,東北東,2,東北東,13.8,94.4,0,0,0,0
103,2020-11-02T01:42:00,1.1,東北東,2,東北東,13.8,94.5,0,0,0,0
104,2020-11-02T01:43:00,1.1,東北東,2,東北東,13.8,94.5,0,0,0,0
105,2020-11-02T01:44:00,1.1,東北東,2,東北東,13.8,94.6,0,0,0,0
106,2020-11-02T01:45:00,1,東,2,東北東,13.8,94.9,0,0,0,0
107,2020-11-02T01:46:00,0.9,東,2,東北東,13.8,94.9,0,0,0,0
108,2020-11-02T01:47:00,0.8,東,2,東北東,13.8,94.9,0,0,0,0
109,2020-11-02T01:48:00,0.7,東南東,2,東北東,13.8,95,0,0,0,0
110,2020-11-02T01:49:00,0.6,南東,1.8,東北東,13.8,95.1,0,0,0,0
111,2020-11-02T01:50:00,0.6,南,1.7,東北東,13.7,94.9,0,0,0,0
112,2020-11-02T01:51:00,0.5,南,1.7,東北東,13.7,94.6,0,0,0,0
113,2020-11-02T01:52:00,0.4,南,1.3,東南東,13.7,94.8,0,0,0,0
114,2020-11-02T01:53:00,0.4,南,1.3,東南東,13.7,94.7,0,0,0,0
115,2020-11-02T01:54:00,0.3,南,0.8,南南西,13.8,94.7,0,0,0,0
116,2020-11-02T01:55:00,0.3,南南東,0.8,南南西,13.7,94.8,0,0,0,0
117,2020-11-02T01:56:00,0.3,南南東,0.8,南南西,13.7,94.7,0,0,0,0
118,2020-11-02T01:57:00,0.3,南東,0.8,南南西,13.7,94.8,0,0,0,0
119,2020-11-02T01:58:00,0.3,東南東,0.8,南南西,13.7,94.8,0,0,0,0
120,2020-11-02T01:59:00,0.2,静穏,0.8,南南西,13.7,94.9,0,0,0,0
121,2020-11-02T02:00:00,0.2,静穏,0.5,東,13.7,95.1,0,0,0,0
122,2020-11-02T02:01:00,0.2,静穏,0.5,東,13.7,95.1,0,0,0,0
123,2020-11-02T02:02:00,0.1,静穏,0.5,東,13.8,95.4,0,0,0,0
124,2020-11-02T02:03:00,0.1,静穏,0.5,東,13.8,95.4,0,0,0,0
125,2020-11-02T02:04:00,0.1,静穏,0.5,東,13.8,95.4,0,0,0,0
126,2020-11-02T02:05:00,0.1,静穏,0.5,東,13.8,95.4,0,0,0,0
127,2020-11-02T02:06:00,0,静穏,0.5,東,13.8,95.4,0,0,0,0
128,2020-11-02T02:07:00,0,静穏,0.5,東,13.8,95.5,0,0,0,0
129,2020-11-02T02:08:00,0,静穏,0.1,南西,13.8,95.5,0,0,0,0
130,2020-11-02T02:09:00,0,静穏,0.2,南南西,13.7,95.5,0,0,0,0
131,2020-11-02T02:10:00,0,静穏,0.2,南南西,13.7,95.4,0,0,0,0
132,2020-11-02T02:11:00,0,静穏,0.3,南南西,13.7,95.4,0,0,0,0
133,2020-11-02T02:12:00,0,静穏,0.4,南南東,13.8,95.6,0,0,0,0
134,2020-11-02T02:13:00,0.1,静穏,0.5,南南西,13.7,95.5,0,0,0,0
135,2020-11-02T02:14:00,0.1,静穏,0.5,南南西,13.7,95.3,0,0,0,0
136,2020-11-02T02:15:00,0.1,静穏,0.6,南,13.7,95.4,0,0,0,0
137,2020-11-02T02:16:00,0.1,静穏,0.6,南,13.7,95.4,0,0,0,0
138,2020-11-02T02:17:00,0.2,静穏,0.7,南東,13.7,95.4,0,0,0,0
139,2020-11-02T02:18:00,0.2,静穏,1,東南東,13.7,95.5,0,0,0,0
140,2020-11-02T02:19:00,0.3,南,1,東南東,13.7,95.5,0,0,0,0
141,2020-11-02T02:20:00,0.4,南南東,1,東南東,13.7,95.5,0,0,0,0
142,2020-11-02T02:21:00,0.4,南南東,1,東南東,13.7,95.6,0,0,0,0
143,2020-11-02T02:22:00,0.4,南東,1,東南東,13.7,95.7,0,0,0,0
144,2020-11-02T02:23:00,0.4,南東,1,東南東,13.7,95.7,0,0,0,0
145,2020-11-02T02:24:00,0.4,南東,1,東南東,13.7,95.7,0,0,0,0
146,2020-11-02T02:25:00,0.4,南東,1,東南東,13.7,95.7,0,0,0,0
147,2020-11-02T02:26:00,0.4,南東,1.1,南南東,13.6,95.7,0,0,0,0
148,2020-11-02T02:27:00,0.5,南東,1.1,南南東,13.6,95.7,0,0,0,0
149,2020-11-02T02:28:00,0.5,南東,2.1,南南東,13.6,95.7,0,0,0,0
150,2020-11-02T02:29:00,0.5,南東,2.1,南南東,13.6,95.7,0,0,0,0
151,2020-11-02T02:30:00,0.6,南南東,2.2,南,13.6,95.7,0,0,0,0
152,2020-11-02T02:31:00,0.7,南南東,2.2,南,13.6,95.8,0,0,0,0
153,2020-11-02T02:32:00,0.7,南南東,2.2,南,13.6,95.8,0,0,0,0
154,2020-11-02T02:33:00,0.8,南,2.2,南,13.6,95.8,0,0,0,0
155,2020-11-02T02:34:00,0.8,南,2.2,南,13.5,95.9,0,0,0,0
156,2020-11-02T02:35:00,0.9,南,2.2,南,13.6,95.9,0,0,0,0
157,2020-11-02T02:36:00,0.9,南,2.2,南,13.6,96,0,0,0,0
158,2020-11-02T02:37:00,0.9,南,2.2,南,13.6,96,0,0,0,0
159,2020-11-02T02:38:00,0.8,南南東,2.2,南,13.6,96.1,0,0,0,0
160,2020-11-02T02:39:00,0.7,南南東,2.2,南,13.6,96.1,0,0,0,0
161,2020-11-02T02:40:00,0.7,南南東,1.7,南南東,13.6,96.2,0,0,0,0
162,2020-11-02T02:41:00,0.7,南南東,1.6,南東,13.6,96.2,0,0,0,0
163,2020-11-02T02:42:00,0.7,南東,1.6,南東,13.7,96.1,0,0,0,0
164,2020-11-02T02:43:00,0.6,南東,1.6,南東,13.7,96.2,0,0,0,0
165,2020-11-02T02:44:00,0.6,南東,1.6,南東,13.7,96.2,0,0,0,0
166,2020-11-02T02:45:00,0.7,南東,1.8,南東,13.7,96.2,0,0,0,0
167,2020-11-02T02:46:00,0.7,南東,1.8,南東,13.7,96.2,0,0,0,0
168,2020-11-02T02:47:00,0.8,東南東,1.8,南東,13.7,96.2,0,0,0,0
169,2020-11-02T02:48:00,0.8,東南東,1.8,南東,13.7,96.2,0,0,0,0
170,2020-11-02T02:49:00,0.9,南東,1.8,南東,13.7,96.2,0,0,0,0
171,2020-11-02T02:50:00,0.8,南東,1.8,南東,13.7,96.2,0,0,0,0
172,2020-11-02T02:51:00,0.8,南東,1.8,南東,13.7,96.2,0,0,0,0
173,2020-11-02T02:52:00,0.9,南東,1.8,南東,13.7,96.2,0,0,0,0
174,2020-11-02T02:53:00,0.9,南東,1.8,南東,13.7,96.2,0,0,0,0
175,2020-11-02T02:54:00,0.9,東南東,1.8,南東,13.7,96.2,0,0,0,0
176,2020-11-02T02:55:00,0.8,東南東,1.5,南東,13.8,96.2,0,0,0,0
177,2020-11-02T02:56:00,0.8,東南東,1.5,南東,13.8,96.3,0,0,0,0
178,2020-11-02T02:57:00,0.8,東南東,1.5,南東,13.8,96.3,0,0,0,0
179,2020-11-02T02:58:00,0.8,東,1.7,東,13.8,96.3,0,0,0,0
180,2020-11-02T02:59:00,0.8,東,1.7,東,13.8,96.2,0,0,0,0
181,2020-11-02T03:00:00,0.8,東,1.7,東,13.7,96.2,0,0,0,0
182,2020-11-02T03:01:00,0.8,東,1.7,東,13.7,96.2,0,0,0,0
183,2020-11-02T03:02:00,0.7,東,1.7,東,13.8,96.2,0,0,0,0
184,2020-11-02T03:03:00,0.8,東,1.7,東,13.7,96.2,0,0,0,0
185,2020-11-02T03:04:00,0.8,東,2.4,南東,13.7,96.3,0,0,0,0
186,2020-11-02T03:05:00,0.9,東,2.4,南東,13.7,96.3,0,0,0,0
187,2020-11-02T03:06:00,0.9,東,2.4,南東,13.8,96.3,0,0,0,0
188,2020-11-02T03:07:00,1,東,2.4,南東,13.8,96.3,0,0,0,0
189,2020-11-02T03:08:00,0.9,東,2.4,南東,13.7,96.3,0,0,0,0
190,2020-11-02T03:09:00,1.1,東,2.4,南東,13.8,96.3,0,0,0,0
191,2020-11-02T03:10:00,1.1,東,2.4,南東,13.8,96.3,0,0,0,0
192,2020-11-02T03:11:00,1.2,東,2.4,南東,13.8,96.4,0,0,0,0
193,2020-11-02T03:12:00,1.2,東南東,2.4,南東,13.8,96.3,0,0,0,0
194,2020-11-02T03:13:00,1.2,東南東,2.4,南東,13.9,96.4,0,0,0,0
195,2020-11-02T03:14:00,1.2,東南東,2.4,東南東,13.9,96.4,0,0,0,0
196,2020-11-02T03:15:00,1.1,東南東,2.2,東南東,13.9,96.3,0,0,0,0
197,2020-11-02T03:16:00,1.1,東南東,2.2,東南東,13.9,96.3,0,0,0,0
198,2020-11-02T03:17:00,1,東南東,2.2,東南東,13.9,96.3,0,0,0,0
199,2020-11-02T03:18:00,1.1,東南東,2.2,東南東,13.9,96.2,0,0,0,0
200,2020-11-02T03:19:00,1,東南東,2.2,東南東,13.9,96.2,0,0,0,0
201,2020-11-02T03:20:00,1,南東,2.2,東南東,13.9,96.2,0,0,0,0
202,2020-11-02T03:21:00,0.9,東南東,1.7,南東,13.8,96.1,0,0,0,0
203,2020-11-02T03:22:00,0.9,東南東,1.7,南東,13.8,96.1,0,0,0,0
204,2020-11-02T03:23:00,0.9,東南東,1.7,南東,13.8,96.1,0,0,0,0
205,2020-11-02T03:24:00,0.8,南東,1.7,南東,13.9,96.2,0,0,0,0
206,2020-11-02T03:25:00,0.8,南東,1.7,南東,13.9,96.2,0,0,0,0
207,2020-11-02T03:26:00,0.8,南東,1.7,南東,13.9,96.2,0,0,0,0
208,2020-11-02T03:27:00,0.8,南東,1.7,南東,13.9,96.2,0,0,0,0
209,2020-11-02T03:28:00,0.8,南東,1.7,南東,13.9,96.1,0,0,0,0
210,2020-11-02T03:29:00,0.7,南東,1.7,南東,13.9,96.1,0,0,0,0
211,2020-11-02T03:30:00,0.7,南東,1.8,南南東,13.9,96.1,0,0,0,0
212,2020-11-02T03:31:00,0.8,南東,1.8,南南東,13.9,96.1,0,0,0,0
213,2020-11-02T03:32:00,0.8,南東,1.8,南南東,13.9,96.2,0,0,0,0
214,2020-11-02T03:33:00,0.9,南東,2.1,南東,13.9,96.2,0,0,0,0
215,2020-11-02T03:34:00,1,南東,2.4,南東,13.9,96.1,0,0,0,0
216,2020-11-02T03:35:00,1.1,南東,2.4,南東,13.9,96.1,0,0,0,0
217,2020-11-02T03:36:00,1.1,南東,2.4,南東,13.9,96.1,0,0,0,0
218,2020-11-02T03:37:00,1.1,南東,2.4,南東,13.9,96,0,0,0,0
219,2020-11-02T03:38:00,1.2,南東,2.4,南東,13.9,96,0,0,0,0
220,2020-11-02T03:39:00,1.2,南東,2.4,南東,13.9,96,0,0,0,0
221,2020-11-02T03:40:00,1.3,南東,2.4,南東,13.9,96,0,0,0,0
222,2020-11-02T03:41:00,1.3,南東,2.4,南東,13.8,96,0,0,0,0
223,2020-11-02T03:42:00,1.3,南東,2.4,南東,13.8,96,0,0,0,0
224,2020-11-02T03:43:00,1.3,南東,2.4,南東,13.8,96.1,0,0,0,0
225,2020-11-02T03:44:00,1.2,南東,2.8,南,13.8,96.1,0,0,0,0
226,2020-11-02T03:45:00,1.2,南南東,2.8,南,13.8,96.1,0,0,0,0
227,2020-11-02T03:46:00,1.2,南南東,2.8,南,13.8,96.1,0,0,0,0
228,2020-11-02T03:47:00,1.2,南南東,2.8,南,13.8,96.1,0,0,0,0
229,2020-11-02T03:48:00,1.2,南南東,2.8,南,13.8,96.1,0,0,0,0
230,2020-11-02T03:49:00,1.2,南南東,2.8,南,13.8,96.2,0,0,0,0
231,2020-11-02T03:50:00,1.2,南南東,2.8,南,13.8,96.2,0,0,0,0
232,2020-11-02T03:51:00,1.2,南南東,2.8,南,13.8,96.3,0,0,0,0
233,2020-11-02T03:52:00,1.3,南南東,3.2,東南東,13.8,96.3,0,0,0,0
234,2020-11-02T03:53:00,1.3,南南東,3.2,東南東,13.8,96.3,0,0,0,0
235,2020-11-02T03:54:00,1.3,南南東,3.2,東南東,13.8,96.3,0,0,0,0
236,2020-11-02T03:55:00,1.3,南東,3.2,東南東,13.8,96.3,0,0,0,0
237,2020-11-02T03:56:00,1.2,南南東,3.2,東南東,13.8,96.3,0,0,0,0
238,2020-11-02T03:57:00,1.2,南南東,3.2,東南東,13.8,96.4,0,0,0,0
239,2020-11-02T03:58:00,1.1,南南東,3.2,東南東,13.8,96.4,0,0,0,0
240,2020-11-02T03:59:00,1.1,南南東,3.2,東南東,13.8,96.4,0,0,0,0
241,2020-11-02T04:00:00,1,南,3.2,東南東,13.8,96.3,0,0,0,0
242,2020-11-02T04:01:00,1,南西,3.2,東南東,13.8,96.4,0,0,0,0
243,2020-11-02T04:02:00,0.9,西,2.6,南東,13.8,96.4,0,0,0,0
244,2020-11-02T04:03:00,0.8,西北西,1.6,北西,13.8,96.4,0,0,0,0
245,2020-11-02T04:04:00,0.6,北西,1.6,北西,13.8,96.4,0,0,0,0
246,2020-11-02T04:05:00,0.6,北西,1.6,北西,13.8,96.5,0,0,0,0
247,2020-11-02T04:06:00,0.6,北西,1.6,北西,13.8,96.4,0,0,0,0
248,2020-11-02T04:07:00,0.7,北北西,1.6,北西,13.8,96.5,0,0,0,0
249,2020-11-02T04:08:00,0.7,北北東,1.6,北西,13.8,96.4,0,0,0,0
250,2020-11-02T04:09:00,0.8,東北東,1.6,北西,13.9,96.4,0,0,0,0
